Home   Weather   Witzenhausen   Past weeks

Flag for Germany Past Weather in Witzenhausen, Hesse, Germany — Yesterday and Last 2 Weeks

Now
66 °F

Sunny.


Feels Like: 66 °F
Forecast: 58 / 72 °F
Wind: 12 mph from Southwest

Location: Kassel / Calden

Current Time: Sep 28, 2016 at 5:38:53 PM

Latest Report: Sep 28, 2016 at 4:50 PM


Visibility: 10 mi

Pressure: 30.24 "Hg

Humidity: 60%

Dew Point: 52 °F

Location of WitzenhausenLocation

Past Weather in Witzenhausen — Graph

°F

Witzenhausen Temperature Yesterday

Maximum temperature yesterday: 70 °F (at 3:20 PM)
Minimum temperature yesterday: 54 °F (at 6:50 AM)
Average temperature yesterday: 62 °F

High & Low Weather Summary for the Past Weeks

 TemperatureHumidityPressure
High88 °F (Sep 13, 3:20 PM)100% (Sep 16, 7:20 AM)30.33 "Hg (Sep 16, 7:20 AM)
Low43 °F (Sep 21, 7:20 AM)33% (Sep 13, 3:20 PM)29.86 "Hg (Sep 15, 3:50 PM)
Average64 °F68%30.10 "Hg
* Reported Sep 13 3:20 PM — Sep 28 3:50 PM, Witzenhausen, Weather by CustomWeather, © 2016

Note: Actual official high and low records may vary slightly from our data, if they occured in-between our weather recording intervals... More about our weather records

Advertising

Witzenhausen Weather History for the Previous 24 Hours

Scroll right to see more
 ConditionsComfort  
Time TempWeatherWind HumidityBarometerVisibility
3:50 PM
Wed, Sep 28
68 °FPartly sunny.16 mph60%30.21 "HgN/A
3:20 PM68 °FBroken clouds.14 mph64%30.24 "HgN/A
2:50 PM66 °FPartly sunny.12 mph64%30.24 "HgN/A
2:20 PM66 °FPartly sunny.14 mph64%30.24 "HgN/A
1:50 PM66 °FPartly sunny.14 mph64%30.24 "HgN/A
1:20 PM66 °FPartly sunny.14 mph64%30.24 "HgN/A
12:50 PM66 °FPartly sunny.13 mph64%30.24 "HgN/A
12:20 PM66 °FPartly sunny.14 mph60%30.24 "HgN/A
11:50 AM64 °FPartly sunny.12 mph64%30.27 "HgN/A
11:20 AM63 °FPartly sunny.12 mph68%30.27 "HgN/A
10:50 AM61 °FPartly sunny.15 mph68%30.27 "HgN/A
10:20 AM63 °FPartly sunny.14 mph64%30.27 "HgN/A
9:50 AM61 °FPartly sunny.14 mph63%30.27 "HgN/A
9:20 AM59 °FPartly sunny.7 mph68%30.24 "HgN/A
8:50 AM59 °FBroken clouds.10 mph68%30.27 "HgN/A
8:20 AM57 °FSunny.9 mph72%30.27 "Hg10 mi
7:50 AM55 °FSunny.10 mph82%30.27 "Hg10 mi
7:20 AM55 °FSunny.2 mph77%30.24 "Hg10 mi
7:50 PM
Tue, Sep 27
61 °FClear.2 mph77%30.30 "Hg10 mi
7:20 PM63 °FClear.6 mph73%30.30 "Hg10 mi
6:50 PM64 °FSunny.7 mph68%30.30 "Hg10 mi
6:20 PM66 °FPassing clouds.6 mph64%30.30 "HgN/A
5:50 PM68 °FPassing clouds.8 mph60%30.30 "HgN/A
5:20 PM68 °FPassing clouds.6 mph60%30.30 "HgN/A
Weather by CustomWeather, © 2016

See weather overviewHow to use our weather pages